Home   Weather   São Luis   Past weeks
Flag for Brazil

Past Weather in São Luis, Maranhão, Brazil — Yesterday and Last 2 Weeks

Now
77 °F

Passing clouds.


Feels Like: 78 °F
Forecast: 86 / 78 °F
Wind: 3 mph from Northeast

Location: Sao Luiz Aeroporto

Current Time: May 22, 2019 at 12:18:54 am

Latest Report: May 22, 2019 at 12:00 am


Visibility: N/A

Pressure: 29.89 "Hg

Humidity: 100%

Dew Point: 77 °F

Location of São LuisLocation

Past Weather in São Luis — Graph

°F

São Luis Temperature Yesterday

Maximum temperature yesterday: 90 °F (at 12:00 pm)
Minimum temperature yesterday: 75 °F (at 3:00 pm)
Average temperature yesterday: 81 °F

High & Low Weather Summary for the Past Weeks

 TemperatureHumidityPressure
High91 °F (May 10, 2:00 pm)100% (May 7, 5:40 am)29.95 "Hg (May 7, 5:40 am)
Low75 °F (May 7, 5:40 am)63% (May 10, 1:00 pm)29.74 "Hg (May 10, 2:00 pm)
Average81 °F89%29.86 "Hg
* Reported May 6 11:00 pm — May 21 11:00 pm, São Luis. Weather by CustomWeather, © 2019

Note: Actual official high and low records may vary slightly from our data, if they occured in-between our weather recording intervals... More about our weather records

Advertising

São Luis Weather History for the Previous 24 Hours

Scroll right to see more
 ConditionsComfort  
Time TempWeatherWind HumidityBarometerVisibility
11:00 pm
Tue, May 21
77 °FThunderstorms. Passing clouds.2 mph94%29.89 "HgN/A
10:00 pm79 °FThunderstorms. Passing clouds.6 mph94%29.89 "Hg2 mi
9:00 pm81 °FPartly cloudy.6 mph89%29.86 "HgN/A
8:00 pm79 °FPassing clouds.3 mph94%29.86 "HgN/A
7:00 pm79 °FPassing clouds.3 mph94%29.83 "HgN/A
6:00 pm81 °FPassing clouds.2 mph89%29.80 "HgN/A
5:00 pm81 °FPartly sunny.7 mph89%29.80 "HgN/A
4:00 pm79 °FPartly sunny.5 mph89%29.80 "HgN/A
3:00 pm75 °FThunderstorms. Partly sunny.N/A100%29.80 "Hg3 mi
2:10 pm77 °FRain. Partly sunny.N/A94%29.83 "Hg1 mi
2:00 pm86 °FPartly sunny.13 mph75%29.80 "HgN/A
1:00 pm86 °FBroken clouds.3 mph79%29.86 "HgN/A
12:00 pm90 °FPartly sunny.9 mph71%29.86 "HgN/A
11:00 am88 °FScattered clouds.8 mph70%29.89 "HgN/A
10:00 am86 °FScattered clouds.13 mph75%29.89 "HgN/A
9:00 am84 °FScattered clouds.12 mph79%29.89 "HgN/A
8:00 am84 °FScattered clouds.6 mph84%29.86 "HgN/A
7:00 am79 °FScattered clouds.3 mph94%29.86 "HgN/A
6:00 am79 °FScattered clouds.5 mph94%29.83 "HgN/A
5:00 am79 °FPassing clouds.2 mph94%29.83 "HgN/A
4:00 am79 °FPartly cloudy.2 mph94%29.83 "HgN/A
3:00 am79 °FClear.No wind94%29.83 "Hg10 mi
2:00 am77 °FClear.2 mph100%29.86 "Hg10 mi
1:00 am79 °FClear.2 mph94%29.86 "Hg10 mi
12:00 am79 °FClear.3 mph94%29.89 "Hg10 mi
Weather by CustomWeather, © 2019

See weather overview